Hebbronville, TX

1:13 AM CDT on April 26, 2017 (GMT -0500)
Hogg County

Weather History for KHBV - September, 2012

Change the Weather History Date:

Saturday, September 22, 2012

  Actual Average (KALI) Record (KALI)
Temperature  
Mean Temperature 77 °F -  
Max Temperature 92 °F 88 °F 100 °F (2005)
Min Temperature 62 °F 67 °F 64 °F (1999)
Cooling Degree Days 12    
Growing Degree Days 27 (Base 50)    
Moisture  
Dew Point 60 °F    
Average Humidity 58    
Maximum Humidity 86    
Minimum Humidity 26    
Precipitation  
Precipitation 0.00 in - - ()
Sea Level Pressure  
Sea Level Pressure 30.05 in    
Wind  
Wind Speed 4 mph (ESE)    
Max Wind Speed 15 mph    
Max Gust Speed 22 mph    
Visibility 10 miles    
Events      
Averages and records for this station are not official NWS values.
T = Trace of Precipitation, MM = Missing Value Source: NWS Daily Summary

Daily Weather History Graph

Daily Weather History Graph

Search for Another Location

Airport or City:

Trip Planner

Search our weather history database for the weather conditions in past years. The results will help you decide how hot, cold, wet, or windy it might be!

Date:

Astronomy

Sep. 22, 2012 Rise Set
Actual Time 7:23 AM CDT 7:30 PM CDT
Civil Twilight 7:00 AM CDT 7:54 PM CDT
Nautical Twilight 6:33 AM CDT 8:21 PM CDT
Astronomical Twilight 6:05 AM CDT 8:48 PM CDT
Moon 2:12 PM CDT (9/22) 12:06 AM CDT (9/22)
Length of Visible Light 12h 53m
Length of Day
12h 07m
Waxing Crescent, 49% of the Moon is Illuminated
Sep 22
Waxing Crescent
Sep 22
First Quarter
Sep 29
Full
Oct 8
Last Quarter
Oct 15
New

Hourly Weather History & Observations

Time (CDT) Temp. Heat Index Dew Point Humidity Pressure Visibility Wind Dir Wind Speed Gust Speed Precip Events Conditions
12:15 AM 69.8 °F - 53.6 °F 56% 30.01 in 10.0 mi Calm Calm - N/A   Clear
12:35 AM 68.7 °F - 54.0 °F 59% 30.01 in 10.0 mi South 3.5 mph - N/A   Clear
12:55 AM 68.7 °F - 53.8 °F 59% 30.01 in 10.0 mi Calm Calm - N/A   Clear
1:15 AM 68.0 °F - 54.5 °F 62% 30.00 in 10.0 mi SE 3.5 mph - N/A   Clear
1:35 AM 67.5 °F - 54.7 °F 64% 30.01 in 10.0 mi SE 3.5 mph - N/A   Clear
1:55 AM 66.9 °F - 54.9 °F 65% 30.01 in 10.0 mi Calm Calm - N/A   Clear
2:15 AM 67.1 °F - 54.5 °F 64% 30.01 in 10.0 mi Calm Calm - N/A   Clear
2:35 AM 66.9 °F - 54.9 °F 65% 30.01 in 10.0 mi Calm Calm - N/A   Clear
2:55 AM 67.1 °F - 55.6 °F 66% 30.01 in 10.0 mi Calm Calm - N/A   Clear
3:15 AM 65.1 °F - 55.8 °F 72% 30.01 in 10.0 mi Calm Calm - N/A   Clear
3:35 AM 64.6 °F - 56.1 °F 74% 30.01 in 10.0 mi Calm Calm - N/A   Clear
3:55 AM 65.1 °F - 56.3 °F 73% 30.01 in 10.0 mi Calm Calm - N/A   Clear
4:15 AM 64.4 °F - 56.5 °F 75% 30.01 in 10.0 mi Calm Calm - N/A   Clear
4:35 AM 63.9 °F - 57.0 °F 78% 30.01 in 10.0 mi Calm Calm - N/A   Clear
4:55 AM 64.0 °F - 57.6 °F 79% 30.02 in 10.0 mi WSW 4.6 mph - N/A   Clear
5:15 AM 63.9 °F - 58.3 °F 82% 30.02 in 10.0 mi WSW 4.6 mph - N/A   Clear
5:55 AM 64.8 °F - 58.8 °F 81% 30.03 in 10.0 mi WSW 3.5 mph - N/A   Clear
6:15 AM 65.3 °F - 59.2 °F 81% 30.03 in 10.0 mi Calm Calm - N/A   Clear
6:35 AM 64.4 °F - 58.6 °F 82% 30.04 in 10.0 mi Calm Calm - N/A   Clear
6:55 AM 63.5 °F - 58.1 °F 83% 30.04 in 10.0 mi Calm Calm - N/A   Clear
7:15 AM 62.8 °F - 58.3 °F 85% 30.05 in 10.0 mi NW 3.5 mph - N/A   Clear
7:35 AM 62.8 °F - 58.5 °F 86% 30.06 in 10.0 mi Calm Calm - N/A   Clear
7:55 AM 64.0 °F - 59.4 °F 85% 30.06 in 10.0 mi Calm Calm - N/A   Clear
8:15 AM 66.7 °F - 61.2 °F 82% 30.06 in 10.0 mi Calm Calm - N/A   Clear
8:55 AM 73.6 °F - 64.6 °F 73% 30.07 in 10.0 mi South 3.5 mph - N/A   Clear
9:15 AM 75.6 °F - 66.4 °F 73% 30.08 in 10.0 mi South 3.5 mph - N/A   Clear
9:35 AM 77.5 °F - 67.1 °F 70% 30.08 in 10.0 mi SSE 6.9 mph - N/A   Clear
9:55 AM 78.8 °F - 66.7 °F 66% 30.08 in 10.0 mi SSE 6.9 mph - N/A   Scattered Clouds
10:15 AM 79.9 °F - 65.3 °F 61% 30.09 in 10.0 mi SE 6.9 mph - N/A   Clear
10:35 AM 80.6 °F 82.2 °F 64.2 °F 57% 30.09 in 10.0 mi SSE 5.8 mph - N/A   Clear
10:55 AM 81.0 °F 82.6 °F 64.4 °F 57% 30.09 in 10.0 mi SSE 4.6 mph - N/A   Clear
11:15 AM 82.4 °F 83.9 °F 64.0 °F 54% 30.09 in 10.0 mi SE 4.6 mph - N/A   Clear
11:35 AM 82.9 °F 84.2 °F 63.5 °F 52% 30.08 in 10.0 mi Calm Calm - N/A   Clear
11:55 AM 84.0 °F 84.9 °F 63.1 °F 49% 30.08 in 10.0 mi SE 6.9 mph - N/A   Scattered Clouds
12:15 PM 85.3 °F 85.9 °F 62.4 °F 46% 30.08 in 10.0 mi East 4.6 mph - N/A   Scattered Clouds
12:35 PM 86.9 °F 86.5 °F 59.9 °F 40% 30.07 in 10.0 mi SE 6.9 mph - N/A   Scattered Clouds
12:55 PM 88.0 °F 87.1 °F 58.8 °F 37% 30.06 in 10.0 mi SE 4.6 mph - N/A   Scattered Clouds
1:15 PM 88.0 °F 87.4 °F 59.5 °F 38% 30.06 in 10.0 mi ENE 6.9 mph - N/A   Mostly Cloudy
1:55 PM 89.2 °F 87.9 °F 57.6 °F 34% 30.05 in 10.0 mi East 6.9 mph - N/A   Scattered Clouds
2:15 PM 90.1 °F 88.6 °F 56.8 °F 32% 30.04 in 10.0 mi ESE 5.8 mph - N/A   Scattered Clouds
2:35 PM 91.0 °F 89.7 °F 57.2 °F 32% 30.03 in 10.0 mi NE 9.2 mph - N/A   Mostly Cloudy
2:55 PM 90.5 °F 89.0 °F 57.0 °F 32% 30.02 in 10.0 mi NE 4.6 mph - N/A   Mostly Cloudy
3:15 PM 91.0 °F 89.4 °F 56.1 °F 31% 30.02 in 10.0 mi NNE 3.5 mph - N/A   Mostly Cloudy
3:35 PM 90.7 °F 88.7 °F 55.4 °F 30% 30.02 in 10.0 mi ESE 4.6 mph - N/A   Mostly Cloudy
3:55 PM 91.2 °F 89.1 °F 55.0 °F 29% 30.02 in 10.0 mi East 8.1 mph - N/A   Mostly Cloudy
4:15 PM 92.5 °F 90.2 °F 53.6 °F 27% 30.01 in 10.0 mi East 5.8 mph - N/A   Mostly Cloudy
4:35 PM 92.1 °F 89.7 °F 53.8 °F 27% 30.01 in 10.0 mi ENE 4.6 mph - N/A   Scattered Clouds
4:55 PM 92.7 °F 90.1 °F 53.4 °F 26% 30.00 in 10.0 mi East 6.9 mph - N/A   Scattered Clouds
5:15 PM 91.8 °F - 52.5 °F 26% 30.00 in 10.0 mi Calm Calm - N/A   Clear
5:35 PM 92.7 °F 90.4 °F 54.1 °F 27% 30.00 in 10.0 mi East 11.5 mph 19.6 mph N/A   Scattered Clouds
5:55 PM 91.8 °F 91.9 °F 61.3 °F 36% 30.01 in 10.0 mi ENE 15.0 mph 21.9 mph N/A   Scattered Clouds
6:15 PM 90.7 °F 91.0 °F 61.5 °F 38% 30.02 in 10.0 mi East 13.8 mph 20.7 mph N/A   Scattered Clouds
6:35 PM 89.6 °F 90.1 °F 62.6 °F 40% 30.03 in 10.0 mi East 15.0 mph 18.4 mph N/A   Mostly Cloudy
6:55 PM 88.2 °F 89.0 °F 63.1 °F 43% 30.03 in 10.0 mi East 12.7 mph - N/A   Mostly Cloudy
7:15 PM 87.1 °F 88.6 °F 64.4 °F 47% 30.03 in 10.0 mi East 11.5 mph 20.7 mph N/A   Scattered Clouds
7:35 PM 85.5 °F 87.9 °F 66.6 °F 53% 30.05 in 10.0 mi East 15.0 mph 18.4 mph N/A   Clear
7:55 PM 84.4 °F 86.8 °F 66.4 °F 55% 30.06 in 10.0 mi East 12.7 mph 17.3 mph N/A   Mostly Cloudy
8:15 PM 83.8 °F 85.8 °F 65.5 °F 54% 30.06 in 10.0 mi East 10.4 mph - N/A   Mostly Cloudy
8:55 PM 82.0 °F 84.7 °F 67.3 °F 61% 30.08 in 10.0 mi ESE 11.5 mph - N/A   Clear
9:15 PM 81.3 °F 83.8 °F 67.3 °F 62% 30.09 in 10.0 mi East 11.5 mph - N/A   Clear
9:35 PM 80.8 °F 83.5 °F 68.0 °F 65% 30.10 in 10.0 mi East 10.4 mph - N/A   Clear
9:55 PM 80.1 °F 82.8 °F 68.7 °F 68% 30.10 in 10.0 mi East 9.2 mph - N/A   Clear
10:15 PM 79.5 °F - 68.9 °F 70% 30.10 in 10.0 mi East 8.1 mph - N/A   Clear
10:35 PM 79.0 °F - 69.1 °F 72% 30.11 in 10.0 mi East 9.2 mph - N/A   Clear
11:15 PM 78.1 °F - 69.8 °F 76% 30.11 in 10.0 mi East 9.2 mph - N/A   Scattered Clouds
11:35 PM 77.7 °F - 69.8 °F 76% 30.11 in 10.0 mi ESE 6.9 mph - N/A   Clear
11:55 PM 77.0 °F - 69.8 °F 78% 30.11 in 10.0 mi East 5.8 mph - N/A   Clear